Location: ??????
(38.5153°N, 23.0340°E)
Time: 14:00:47
(UTC+00:00)

Okean 1 - Pass Details

Date: 13 December 2025
Orbit: 465 x 484 km, 82.5° (Epoch: 17 January)

Event Time Altitude Azimuth Distance (km) Brightness Sun altitude
Rises 15:58:11 0° 160° (SSE) 2,525 6.7 -9.8°
Reaches altitude 10° 16:00:31 10° 147° (SSE) 1,647 5.6 -10.2°
Maximum altitude 16:03:30 25° 91° (E) 996 4.1 -10.7°
Enters shadow 16:05:52 14° 41° (NE) 1,433 4.9 -11.2°
